EWG3540 EDDV-HEGN

Flight info

Callsign EWG3540
Flight time N/A
Altitude 35000
Route POVEL3H/09R POVEL Y800 TADUV Z21 OSTRA DCT OMELO DCT EVIKU DCT PEPIK DCT XOMBA DCT KEROP DCT NISVA N131 RODIP UN131 KULAR UT39 TOMBI DCT PEDER M855 RASDA A16 CVO L315 SOKOT SOKOT1A
Aircraft A320/M-SDE3FGHIRWY/LB1

Departure

Time N/A
Airport Hannover Airport (EDDV)

Arrival

Time 2026-05-01 14:22
Airport Hurghada International Airport (HEGN)
Time Latitude Longitude Altitude Speed Heading
2026-05-01 10:23 51.14397 13.09234 35440 ft 439 kts 122°
2026-05-01 10:23 51.08983 13.21011 35439 ft 439 kts 123°
2026-05-01 10:24 51.01766 13.36644 35449 ft 439 kts 122°
2026-05-01 10:25 50.94526 13.52214 35425 ft 438 kts 122°
2026-05-01 10:26 50.90927 13.59922 35436 ft 438 kts 122°
2026-05-01 10:27 50.83669 13.75401 35429 ft 438 kts 123°
2026-05-01 10:28 50.78216 13.86987 35431 ft 438 kts 123°
2026-05-01 10:28 50.72735 13.98544 35432 ft 438 kts 123°
2026-05-01 10:29 50.67250 14.10078 35429 ft 438 kts 123°
2026-05-01 10:30 50.59898 14.25496 35453 ft 441 kts 123°
2026-05-01 10:31 50.52520 14.40812 35425 ft 439 kts 123°
2026-05-01 10:32 50.46980 14.52278 35449 ft 439 kts 123°
2026-05-01 10:33 50.38476 14.66205 35442 ft 442 kts 130°
2026-05-01 10:34 50.32008 14.76435 35441 ft 442 kts 130°
2026-05-01 10:34 50.27681 14.83269 35432 ft 442 kts 130°
2026-05-01 10:35 50.21911 14.92341 35438 ft 442 kts 129°
2026-05-01 10:35 50.17575 14.99125 35429 ft 442 kts 129°
2026-05-01 10:36 50.11052 15.09293 35414 ft 442 kts 129°
2026-05-01 10:37 50.06706 15.16053 35417 ft 442 kts 130°
2026-05-01 10:37 50.00200 15.26149 35427 ft 442 kts 129°
2026-05-01 10:38 49.95844 15.32882 35413 ft 442 kts 129°
2026-05-01 10:38 49.91473 15.39615 35413 ft 442 kts 129°
2026-05-01 10:39 49.87092 15.46333 35413 ft 442 kts 129°
2026-05-01 10:39 49.82733 15.52998 35420 ft 442 kts 129°
2026-05-01 10:40 49.78355 15.59684 35439 ft 442 kts 129°
2026-05-01 10:40 49.73978 15.66364 35430 ft 442 kts 129°
2026-05-01 10:41 49.69598 15.73033 35425 ft 442 kts 129°
2026-05-01 10:42 49.63019 15.82993 35422 ft 442 kts 129°
2026-05-01 10:42 49.58632 15.89623 35414 ft 442 kts 129°
2026-05-01 10:43 49.54231 15.96242 35431 ft 441 kts 129°
2026-05-01 10:43 49.49841 16.02821 35425 ft 441 kts 129°
2026-05-01 10:44 49.45447 16.09411 35420 ft 441 kts 129°
2026-05-01 10:44 49.41054 16.15974 35405 ft 441 kts 129°
2026-05-01 10:45 49.36652 16.22541 35403 ft 441 kts 129°
2026-05-01 10:45 49.32267 16.29047 35416 ft 441 kts 129°
2026-05-01 10:46 49.27856 16.35578 35409 ft 441 kts 129°
2026-05-01 10:46 49.23442 16.42107 35406 ft 441 kts 129°
2026-05-01 10:47 49.19035 16.48606 35394 ft 440 kts 129°
2026-05-01 10:47 49.14622 16.55105 35388 ft 440 kts 129°
2026-05-01 10:48 49.10206 16.61594 35417 ft 440 kts 128°
2026-05-01 10:48 49.05778 16.68066 35408 ft 440 kts 129°
2026-05-01 10:49 49.01384 16.74467 35397 ft 440 kts 129°
2026-05-01 10:49 48.96951 16.80905 35395 ft 440 kts 129°
2026-05-01 10:50 48.92234 16.86922 35384 ft 446 kts 136°
2026-05-01 10:50 48.87207 16.92468 35412 ft 447 kts 136°
2026-05-01 10:51 48.82162 16.98006 35404 ft 446 kts 136°
2026-05-01 10:51 48.77122 17.03520 35398 ft 446 kts 136°
2026-05-01 10:52 48.72109 17.08987 35396 ft 446 kts 136°
2026-05-01 10:52 48.67070 17.14486 35387 ft 446 kts 136°
2026-05-01 10:53 48.62029 17.19974 35388 ft 446 kts 136°
2026-05-01 10:53 48.56986 17.25454 35384 ft 446 kts 136°
2026-05-01 10:54 48.51941 17.30912 35384 ft 446 kts 137°
2026-05-01 10:54 48.46888 17.36353 35388 ft 446 kts 136°
2026-05-01 10:55 48.41840 17.41795 35384 ft 446 kts 137°
2026-05-01 10:55 48.36820 17.47189 35399 ft 446 kts 136°
2026-05-01 10:56 48.31763 17.52607 35376 ft 447 kts 137°
2026-05-01 10:56 48.26695 17.58022 35363 ft 447 kts 137°
2026-05-01 10:57 48.21615 17.63433 35365 ft 448 kts 137°
2026-05-01 10:57 48.16521 17.68836 35366 ft 448 kts 137°
2026-05-01 10:58 48.11426 17.74234 35372 ft 448 kts 137°
2026-05-01 10:58 48.06317 17.79660 35404 ft 450 kts 136°
2026-05-01 10:59 48.01223 17.85036 35403 ft 450 kts 137°
2026-05-01 10:59 47.96111 17.90413 35398 ft 449 kts 136°
2026-05-01 11:00 47.91005 17.95781 35393 ft 449 kts 136°
2026-05-01 11:00 47.85902 18.01139 35399 ft 449 kts 136°
2026-05-01 11:01 47.80791 18.06473 35412 ft 448 kts 136°
2026-05-01 11:01 47.75702 18.11766 35395 ft 448 kts 136°
2026-05-01 11:02 47.70587 18.17089 35392 ft 448 kts 136°
2026-05-01 11:02 47.65477 18.22399 35388 ft 448 kts 136°
2026-05-01 11:03 47.60357 18.27700 35385 ft 448 kts 136°
2026-05-01 11:03 47.55244 18.32983 35417 ft 448 kts 136°
2026-05-01 11:04 47.50124 18.38249 35401 ft 447 kts 136°
2026-05-01 11:04 47.45039 18.43465 35392 ft 447 kts 136°
2026-05-01 11:05 47.39930 18.48711 35385 ft 447 kts 136°
2026-05-01 11:05 47.34824 18.53938 35378 ft 447 kts 136°
2026-05-01 11:06 47.29707 18.59158 35401 ft 447 kts 136°
2026-05-01 11:06 47.24589 18.64358 35391 ft 446 kts 136°
2026-05-01 11:07 47.16926 18.72137 35381 ft 446 kts 136°
2026-05-01 11:07 47.11816 18.77314 35374 ft 446 kts 136°
2026-05-01 11:08 47.06708 18.82472 35408 ft 445 kts 136°
2026-05-01 11:09 46.99067 18.90149 35391 ft 445 kts 136°
2026-05-01 11:09 46.93963 18.95263 35384 ft 444 kts 136°
2026-05-01 11:10 46.86310 19.02927 35371 ft 444 kts 136°
2026-05-01 11:10 46.81214 19.08013 35410 ft 444 kts 136°
2026-05-01 11:11 46.76108 19.13088 35384 ft 444 kts 136°
2026-05-01 11:11 46.71010 19.18152 35378 ft 443 kts 136°
2026-05-01 11:12 46.65940 19.23169 35373 ft 443 kts 136°
2026-05-01 11:12 46.60835 19.28210 35366 ft 443 kts 136°
2026-05-01 11:13 46.55725 19.33257 35404 ft 444 kts 137°
2026-05-01 11:13 46.50610 19.38296 35380 ft 444 kts 137°
2026-05-01 11:14 46.45483 19.43322 35364 ft 445 kts 137°
2026-05-01 11:14 46.40351 19.48344 35357 ft 445 kts 137°
2026-05-01 11:15 46.35177 19.53406 35370 ft 451 kts 137°
2026-05-01 11:15 46.29969 19.58473 35395 ft 450 kts 139°
2026-05-01 11:16 46.24784 19.63502 35354 ft 448 kts 139°
2026-05-01 11:16 46.19606 19.68529 35349 ft 448 kts 139°
2026-05-01 11:17 46.14474 19.73625 35346 ft 447 kts 137°
2026-05-01 11:17 46.09470 19.78839 35346 ft 447 kts 136°
2026-05-01 11:18 46.04422 19.84120 35348 ft 447 kts 137°
2026-05-01 11:18 45.99359 19.89344 35343 ft 448 kts 137°
2026-05-01 11:19 45.94306 19.94518 35343 ft 448 kts 137°
2026-05-01 11:19 45.89217 19.99713 35346 ft 449 kts 137°
2026-05-01 11:20 45.84125 20.04899 35344 ft 449 kts 137°
2026-05-01 11:20 45.79034 20.10084 35358 ft 449 kts 138°
2026-05-01 11:21 45.74787 20.14401 35348 ft 450 kts 139°
2026-05-01 11:21 45.69669 20.19584 35343 ft 451 kts 139°
2026-05-01 11:22 45.64549 20.24758 35344 ft 451 kts 139°
2026-05-01 11:22 45.59422 20.29927 35340 ft 451 kts 139°
2026-05-01 11:23 45.54291 20.35096 35352 ft 451 kts 139°
2026-05-01 11:23 45.49174 20.40228 35343 ft 452 kts 140°
2026-05-01 11:24 45.44023 20.45381 35331 ft 453 kts 140°
2026-05-01 11:25 45.36281 20.53110 35332 ft 453 kts 140°
2026-05-01 11:25 45.28507 20.60867 35331 ft 454 kts 140°
2026-05-01 11:26 45.20721 20.68575 35329 ft 455 kts 141°
2026-05-01 11:27 45.15571 20.73672 35326 ft 454 kts 141°
2026-05-01 11:27 45.10387 20.78793 35345 ft 455 kts 141°
2026-05-01 11:28 45.05194 20.83905 35327 ft 455 kts 141°
2026-05-01 11:28 44.99993 20.89009 35323 ft 455 kts 142°
2026-05-01 11:29 44.92188 20.96665 35317 ft 456 kts 142°
2026-05-01 11:30 44.84366 21.04308 35328 ft 456 kts 142°
2026-05-01 11:30 44.79152 21.09382 35322 ft 456 kts 142°
2026-05-01 11:31 44.73931 21.14456 35315 ft 456 kts 142°
2026-05-01 11:31 44.68713 21.19524 35314 ft 456 kts 142°
2026-05-01 11:32 44.63524 21.24545 35330 ft 456 kts 143°
2026-05-01 11:32 44.58301 21.29576 35320 ft 456 kts 143°
2026-05-01 11:33 44.53071 21.34613 35308 ft 456 kts 143°
2026-05-01 11:33 44.47827 21.39650 35308 ft 456 kts 143°
2026-05-01 11:34 44.42584 21.44674 35309 ft 456 kts 143°
2026-05-01 11:34 44.37352 21.49679 35318 ft 456 kts 144°
2026-05-01 11:35 44.32141 21.54662 35309 ft 456 kts 143°
2026-05-01 11:35 44.26892 21.59659 35303 ft 456 kts 144°
2026-05-01 11:36 44.21646 21.64645 35301 ft 457 kts 144°
2026-05-01 11:36 44.16389 21.69640 35316 ft 457 kts 144°
2026-05-01 11:37 44.11124 21.74618 35314 ft 458 kts 144°
2026-05-01 11:37 44.05849 21.79594 35316 ft 458 kts 144°
2026-05-01 11:38 44.00576 21.84570 35312 ft 459 kts 144°
2026-05-01 11:38 43.95322 21.89502 35328 ft 459 kts 145°
2026-05-01 11:39 43.90019 21.94466 35327 ft 459 kts 145°
2026-05-01 11:39 43.84727 21.99414 35327 ft 459 kts 145°
2026-05-01 11:40 43.79427 22.04369 35319 ft 459 kts 145°
2026-05-01 11:40 43.74134 22.09307 35306 ft 459 kts 145°
2026-05-01 11:41 43.68815 22.14255 35298 ft 460 kts 145°
2026-05-01 11:41 43.63531 22.19154 35292 ft 461 kts 145°
2026-05-01 11:42 43.58204 22.24088 35308 ft 461 kts 145°
2026-05-01 11:42 43.52864 22.29023 35302 ft 461 kts 145°
2026-05-01 11:43 43.47535 22.33932 35321 ft 460 kts 146°
2026-05-01 11:43 43.42570 22.38502 35306 ft 460 kts 146°
2026-05-01 11:44 43.34571 22.45841 35295 ft 461 kts 146°
2026-05-01 11:44 43.29228 22.50734 35270 ft 462 kts 146°
2026-05-01 11:45 43.23881 22.55612 35281 ft 461 kts 147°
2026-05-01 11:45 43.18558 22.60461 35295 ft 461 kts 146°
2026-05-01 11:46 43.13215 22.65325 35288 ft 460 kts 147°
2026-05-01 11:46 43.07881 22.70170 35289 ft 460 kts 147°
2026-05-01 11:47 43.02540 22.74992 35278 ft 460 kts 147°
2026-05-01 11:47 42.97241 22.79908 35267 ft 461 kts 141°
2026-05-01 11:48 42.92532 22.85843 35257 ft 461 kts 137°
2026-05-01 11:48 42.87856 22.91837 35266 ft 462 kts 137°
2026-05-01 11:49 42.83189 22.97779 35272 ft 462 kts 137°
2026-05-01 11:49 42.78490 23.03753 35266 ft 463 kts 138°
2026-05-01 11:50 42.73788 23.09745 35269 ft 464 kts 138°
2026-05-01 11:50 42.69067 23.15746 35276 ft 464 kts 138°
2026-05-01 11:51 42.64339 23.21725 35288 ft 464 kts 138°
2026-05-01 11:51 42.59608 23.27690 35286 ft 464 kts 138°
2026-05-01 11:52 42.54882 23.33648 35269 ft 464 kts 139°
2026-05-01 11:52 42.50150 23.39601 35268 ft 464 kts 139°
2026-05-01 11:53 42.45411 23.45553 35254 ft 464 kts 139°
2026-05-01 11:53 42.40695 23.51455 35262 ft 465 kts 139°
2026-05-01 11:54 42.35937 23.57403 35265 ft 465 kts 139°
2026-05-01 11:54 42.31179 23.63326 35266 ft 465 kts 139°
2026-05-01 11:55 42.26405 23.69219 35267 ft 465 kts 139°
2026-05-01 11:55 42.21593 23.75076 35268 ft 465 kts 140°
2026-05-01 11:56 42.16801 23.80867 35265 ft 465 kts 140°
2026-05-01 11:56 42.11982 23.86697 35267 ft 466 kts 140°
2026-05-01 11:57 42.07941 23.91590 35275 ft 466 kts 140°
2026-05-01 11:57 42.02330 23.98369 35266 ft 466 kts 140°
2026-05-01 11:58 41.97490 24.04192 35275 ft 467 kts 140°
2026-05-01 11:59 41.90217 24.12938 35272 ft 468 kts 141°
2026-05-01 11:59 41.85372 24.18765 35281 ft 468 kts 141°
2026-05-01 12:00 41.78077 24.27478 35284 ft 468 kts 141°
2026-05-01 12:01 41.70769 24.36178 35280 ft 472 kts 141°
2026-05-01 12:01 41.65863 24.42020 35284 ft 471 kts 141°
2026-05-01 12:02 41.60955 24.47836 35270 ft 471 kts 141°
2026-05-01 12:02 41.56076 24.53603 35273 ft 471 kts 141°
2026-05-01 12:03 41.51172 24.59397 35274 ft 471 kts 141°
2026-05-01 12:03 41.46268 24.65189 35250 ft 471 kts 142°
2026-05-01 12:04 41.41359 24.70970 35251 ft 471 kts 142°
2026-05-01 12:04 41.36449 24.76765 35249 ft 471 kts 141°
2026-05-01 12:05 41.31546 24.82569 35251 ft 472 kts 141°
2026-05-01 12:05 41.25021 24.90299 35249 ft 472 kts 141°
2026-05-01 12:06 41.19310 24.97015 35231 ft 472 kts 142°
2026-05-01 12:06 41.14388 25.02788 35228 ft 472 kts 142°
2026-05-01 12:07 41.10265 25.07630 35230 ft 472 kts 142°
2026-05-01 12:07 41.05364 25.13372 35227 ft 472 kts 142°
2026-05-01 12:08 41.00428 25.19132 35228 ft 472 kts 142°
2026-05-01 12:08 40.95638 25.24698 35213 ft 473 kts 143°
2026-05-01 12:09 40.90703 25.30433 35214 ft 474 kts 143°
2026-05-01 12:09 40.85748 25.36182 35215 ft 474 kts 143°
2026-05-01 12:10 40.78424 25.44930 35216 ft 478 kts 135°
2026-05-01 12:11 40.71908 25.54940 35215 ft 480 kts 134°
2026-05-01 12:11 40.67552 25.61606 35197 ft 480 kts 135°
2026-05-01 12:12 40.63178 25.68276 35194 ft 481 kts 135°
2026-05-01 12:12 40.58796 25.74952 35200 ft 482 kts 135°
2026-05-01 12:13 40.54406 25.81631 35201 ft 483 kts 135°
2026-05-01 12:13 40.50012 25.88317 35210 ft 483 kts 135°
2026-05-01 12:14 40.45629 25.94934 35219 ft 483 kts 135°
2026-05-01 12:14 40.41162 26.01578 35211 ft 483 kts 136°
2026-05-01 12:15 40.36705 26.08181 35192 ft 484 kts 136°
2026-05-01 12:15 40.32273 26.14776 35197 ft 485 kts 136°
2026-05-01 12:16 40.27804 26.21431 35200 ft 485 kts 136°
2026-05-01 12:16 40.23326 26.28063 35207 ft 486 kts 136°
2026-05-01 12:17 40.18871 26.34659 35211 ft 486 kts 136°
2026-05-01 12:17 40.14380 26.41286 35213 ft 486 kts 137°
2026-05-01 12:18 40.09745 26.47721 35213 ft 483 kts 141°
2026-05-01 12:18 40.04932 26.53787 35154 ft 482 kts 142°
2026-05-01 12:19 40.00065 26.59834 35134 ft 483 kts 142°
2026-05-01 12:19 39.95278 26.65919 35147 ft 483 kts 141°
2026-05-01 12:20 39.90480 26.72091 35160 ft 484 kts 141°
2026-05-01 12:20 39.85682 26.78247 35162 ft 484 kts 142°
2026-05-01 12:21 39.80886 26.84338 35163 ft 484 kts 142°
2026-05-01 12:21 39.76065 26.90445 35129 ft 483 kts 142°
2026-05-01 12:22 39.71192 26.96473 35133 ft 483 kts 143°
2026-05-01 12:22 39.66288 27.02444 35142 ft 483 kts 143°
2026-05-01 12:23 39.61369 27.08433 35151 ft 484 kts 143°
2026-05-01 12:23 39.56475 27.14400 35153 ft 484 kts 143°
2026-05-01 12:24 39.51565 27.20372 35122 ft 484 kts 143°
2026-05-01 12:24 39.47018 27.26931 35130 ft 491 kts 135°
2026-05-01 12:25 39.40517 27.37146 35118 ft 491 kts 135°
2026-05-01 12:26 39.36145 27.43956 35121 ft 491 kts 135°
2026-05-01 12:26 39.29634 27.54087 35113 ft 490 kts 136°
2026-05-01 12:27 39.23084 27.64256 35102 ft 490 kts 136°
2026-05-01 12:28 39.16567 27.74351 35101 ft 490 kts 136°
2026-05-01 12:29 39.10002 27.84472 35063 ft 491 kts 136°
2026-05-01 12:29 39.03416 27.94608 35071 ft 492 kts 136°
2026-05-01 12:30 38.96812 28.04736 35076 ft 493 kts 136°
2026-05-01 12:31 38.92397 28.11483 35064 ft 493 kts 136°
2026-05-01 12:31 38.88003 28.18197 35075 ft 493 kts 136°
2026-05-01 12:32 38.83579 28.24930 35065 ft 492 kts 136°
2026-05-01 12:32 38.76962 28.34974 35041 ft 493 kts 136°
2026-05-01 12:33 38.72515 28.41725 35042 ft 494 kts 136°
2026-05-01 12:33 38.68089 28.48419 35049 ft 493 kts 136°
2026-05-01 12:34 38.63679 28.55073 35064 ft 493 kts 136°
2026-05-01 12:34 38.59199 28.61717 35070 ft 489 kts 141°
2026-05-01 12:35 38.54007 28.67064 35044 ft 476 kts 153°
2026-05-01 12:35 38.48582 28.71914 35013 ft 476 kts 153°
2026-05-01 12:36 38.43134 28.76781 35035 ft 478 kts 153°
2026-05-01 12:36 38.37669 28.81663 35057 ft 480 kts 153°
2026-05-01 12:37 38.32227 28.86519 35060 ft 480 kts 153°
2026-05-01 12:37 38.26754 28.91399 35048 ft 480 kts 153°
2026-05-01 12:38 38.21285 28.96256 35007 ft 479 kts 153°
2026-05-01 12:38 38.15771 29.01131 35044 ft 483 kts 153°
2026-05-01 12:39 38.10284 29.05983 35038 ft 483 kts 153°
2026-05-01 12:39 38.04750 29.10875 35037 ft 484 kts 153°
2026-05-01 12:40 37.99221 29.15747 35033 ft 483 kts 153°
2026-05-01 12:40 37.93687 29.20611 34993 ft 483 kts 154°
2026-05-01 12:41 37.88145 29.25468 34977 ft 485 kts 154°
2026-05-01 12:41 37.82625 29.30295 34986 ft 485 kts 154°
2026-05-01 12:42 37.77066 29.35166 34993 ft 486 kts 154°
2026-05-01 12:42 37.71511 29.40026 34984 ft 486 kts 154°
2026-05-01 12:43 37.65965 29.44865 34964 ft 486 kts 154°
2026-05-01 12:43 37.60385 29.49711 34965 ft 487 kts 154°
2026-05-01 12:44 37.54800 29.54559 34953 ft 488 kts 154°
2026-05-01 12:45 37.43599 29.64283 34962 ft 488 kts 154°
2026-05-01 12:45 37.38033 29.69091 34926 ft 488 kts 154°
2026-05-01 12:46 37.32415 29.73935 34936 ft 488 kts 154°
2026-05-01 12:46 37.26803 29.78772 34940 ft 489 kts 154°
2026-05-01 12:47 37.21218 29.83574 34945 ft 489 kts 154°
2026-05-01 12:47 37.15600 29.88401 34947 ft 489 kts 154°
2026-05-01 12:48 37.09979 29.93224 34923 ft 489 kts 154°
2026-05-01 12:48 37.04353 29.98049 34931 ft 490 kts 154°
2026-05-01 12:49 36.98758 30.02840 34936 ft 490 kts 154°
2026-05-01 12:49 36.93108 30.07640 34943 ft 490 kts 154°
2026-05-01 12:50 36.87476 30.12452 34913 ft 490 kts 153°
2026-05-01 12:50 36.81841 30.17255 34910 ft 490 kts 153°
2026-05-01 12:51 36.76226 30.22006 34945 ft 490 kts 153°
2026-05-01 12:52 36.67770 30.29161 34953 ft 489 kts 153°
2026-05-01 12:52 36.60272 30.35487 34953 ft 489 kts 153°
2026-05-01 12:53 36.51839 30.42587 34942 ft 487 kts 153°
2026-05-01 12:54 36.46221 30.47317 34937 ft 488 kts 153°
2026-05-01 12:54 36.37777 30.54379 34928 ft 488 kts 153°
2026-05-01 12:55 36.29323 30.61437 34919 ft 488 kts 153°
2026-05-01 12:56 36.23687 30.66141 34899 ft 488 kts 153°
2026-05-01 12:56 36.18050 30.70837 34907 ft 488 kts 153°
2026-05-01 12:57 36.12411 30.75522 34921 ft 488 kts 153°
2026-05-01 12:57 36.03628 30.81475 34914 ft 468 kts 172°
2026-05-01 12:58 36.00504 30.82403 34898 ft 457 kts 181°
2026-05-01 12:58 35.97377 30.82762 34895 ft 446 kts 188°
2026-05-01 12:59 35.88093 30.83172 34920 ft 447 kts 187°
2026-05-01 12:59 35.78762 30.83636 34893 ft 447 kts 187°
2026-05-01 13:00 35.69432 30.84067 34912 ft 447 kts 187°
2026-05-01 13:01 35.60108 30.84506 34924 ft 447 kts 187°
2026-05-01 13:02 35.50827 30.84939 34914 ft 446 kts 187°
2026-05-01 13:07 34.82551 30.87629 34935 ft 447 kts 187°
2026-05-01 13:08 34.76338 30.87840 34941 ft 447 kts 187°
2026-05-01 13:08 34.70118 30.88057 34945 ft 447 kts 187°
2026-05-01 13:09 34.63901 30.88264 34927 ft 447 kts 187°
2026-05-01 13:09 34.57678 30.88483 34934 ft 447 kts 186°
2026-05-01 13:10 34.51449 30.88800 34948 ft 448 kts 186°
2026-05-01 13:10 34.45227 30.89136 34924 ft 448 kts 186°
2026-05-01 13:11 34.39002 30.89455 34930 ft 447 kts 186°
2026-05-01 13:11 34.32814 30.89752 34936 ft 447 kts 186°
2026-05-01 13:12 34.26594 30.90050 34938 ft 447 kts 186°
2026-05-01 13:12 34.20363 30.90361 34946 ft 448 kts 186°
2026-05-01 13:13 34.14135 30.90716 34948 ft 448 kts 185°
2026-05-01 13:13 34.07897 30.91081 34953 ft 448 kts 186°
2026-05-01 13:14 34.01670 30.91432 34956 ft 448 kts 186°
2026-05-01 13:14 33.95441 30.91772 34936 ft 448 kts 186°
2026-05-01 13:15 33.89211 30.92052 34944 ft 447 kts 186°
2026-05-01 13:15 33.82984 30.92261 34953 ft 447 kts 187°
2026-05-01 13:16 33.76792 30.92471 34930 ft 447 kts 186°
2026-05-01 13:16 33.70569 30.92702 34938 ft 447 kts 186°
2026-05-01 13:17 33.58111 30.93184 34958 ft 448 kts 186°
2026-05-01 13:18 33.48794 30.93537 34943 ft 448 kts 186°
2026-05-01 13:18 33.42557 30.93770 34949 ft 448 kts 186°
2026-05-01 13:19 33.36316 30.94004 34960 ft 449 kts 186°
2026-05-01 13:20 33.26942 30.94357 34945 ft 449 kts 186°
2026-05-01 13:20 33.20690 30.94592 34954 ft 450 kts 186°
2026-05-01 13:21 33.11298 30.94947 34961 ft 450 kts 186°
2026-05-01 13:21 33.05030 30.95381 34951 ft 453 kts 182°
2026-05-01 13:22 32.98772 30.96142 34954 ft 455 kts 181°
2026-05-01 13:22 32.92477 30.96957 34959 ft 455 kts 181°
2026-05-01 13:23 32.86182 30.97695 34967 ft 454 kts 182°
2026-05-01 13:23 32.79881 30.98378 34949 ft 454 kts 182°
2026-05-01 13:24 32.73582 30.99066 34957 ft 454 kts 182°
2026-05-01 13:25 32.64127 31.00124 34964 ft 455 kts 182°
2026-05-01 13:25 32.57816 31.00834 34953 ft 455 kts 182°
2026-05-01 13:26 32.51502 31.01538 34959 ft 456 kts 182°
2026-05-01 13:26 32.45186 31.02230 34962 ft 456 kts 182°
2026-05-01 13:27 32.38862 31.02926 34965 ft 457 kts 182°
2026-05-01 13:27 32.29394 31.03976 34955 ft 457 kts 182°
2026-05-01 13:28 32.19873 31.05032 34976 ft 458 kts 182°
2026-05-01 13:29 32.07180 31.06417 34953 ft 459 kts 182°
2026-05-01 13:31 31.88077 31.08485 34968 ft 460 kts 182°
2026-05-01 13:32 31.72181 31.10197 34967 ft 460 kts 182°
2026-05-01 13:33 31.56218 31.11893 34950 ft 462 kts 182°
2026-05-01 13:34 31.43407 31.13872 34963 ft 468 kts 177°
2026-05-01 13:35 31.33777 31.15867 34943 ft 468 kts 178°
2026-05-01 13:36 31.24118 31.17672 34949 ft 468 kts 178°
2026-05-01 13:36 31.14446 31.19444 34917 ft 469 kts 178°
2026-05-01 13:37 31.09101 31.20436 34922 ft 470 kts 178°
2026-05-01 13:37 31.01575 31.21835 34927 ft 470 kts 178°
2026-05-01 13:38 30.92932 31.23444 34930 ft 471 kts 178°
2026-05-01 13:39 30.86472 31.24639 34915 ft 471 kts 178°
2026-05-01 13:39 30.79991 31.25841 34919 ft 472 kts 178°
2026-05-01 13:40 30.73497 31.27045 34920 ft 472 kts 178°
2026-05-01 13:40 30.66996 31.28247 34925 ft 472 kts 178°
2026-05-01 13:41 30.60554 31.29435 34915 ft 472 kts 178°
2026-05-01 13:41 30.54062 31.30622 34913 ft 473 kts 178°
2026-05-01 13:42 30.47564 31.31809 34915 ft 473 kts 178°
2026-05-01 13:42 30.41059 31.33009 34916 ft 473 kts 178°
2026-05-01 13:43 30.34547 31.34218 34897 ft 474 kts 178°
2026-05-01 13:43 30.28028 31.35407 34910 ft 475 kts 178°
2026-05-01 13:44 30.21499 31.36602 34922 ft 475 kts 178°
2026-05-01 13:44 30.14969 31.37797 34926 ft 476 kts 178°
2026-05-01 13:45 30.08549 31.39982 34915 ft 490 kts 159°
2026-05-01 13:45 30.05607 31.41937 34917 ft 497 kts 148°
2026-05-01 13:45 30.02833 31.44314 34919 ft 498 kts 147°
2026-05-01 13:46 29.97262 31.49106 34922 ft 499 kts 147°
2026-05-01 13:46 29.91666 31.53864 34929 ft 499 kts 147°
2026-05-01 13:47 29.86071 31.58604 34950 ft 499 kts 147°
2026-05-01 13:47 29.80588 31.63259 34932 ft 498 kts 147°
2026-05-01 13:48 29.75014 31.68007 34955 ft 499 kts 147°
2026-05-01 13:48 29.69426 31.72744 34959 ft 499 kts 147°
2026-05-01 13:49 29.63826 31.77481 34967 ft 499 kts 147°
2026-05-01 13:49 29.58227 31.82223 34973 ft 499 kts 147°
2026-05-01 13:50 29.52616 31.86965 34994 ft 501 kts 147°
2026-05-01 13:50 29.46996 31.91701 34987 ft 500 kts 147°
2026-05-01 13:51 29.41385 31.96433 34978 ft 500 kts 147°
2026-05-01 13:51 29.35775 32.01146 34973 ft 500 kts 147°
2026-05-01 13:52 29.30161 32.05859 34971 ft 500 kts 147°
2026-05-01 13:52 29.24584 32.10542 34982 ft 499 kts 147°
2026-05-01 13:53 29.18982 32.15236 34987 ft 498 kts 147°
2026-05-01 13:53 29.10589 32.22248 34977 ft 497 kts 147°
2026-05-01 13:54 29.04994 32.26914 34972 ft 497 kts 147°
2026-05-01 13:54 28.99414 32.31572 34959 ft 497 kts 147°
2026-05-01 13:55 28.93827 32.36221 34950 ft 497 kts 148°
2026-05-01 13:55 28.88235 32.40876 34954 ft 496 kts 148°
2026-05-01 13:56 28.82685 32.45475 34943 ft 496 kts 148°
2026-05-01 13:56 28.77103 32.50100 34947 ft 496 kts 148°
2026-05-01 13:57 28.71517 32.54729 34940 ft 496 kts 148°
2026-05-01 13:57 28.65931 32.59342 34941 ft 496 kts 148°
2026-05-01 13:58 28.60331 32.63960 34935 ft 496 kts 148°
2026-05-01 13:58 28.54740 32.68571 34907 ft 496 kts 148°
2026-05-01 13:59 28.49184 32.73151 34899 ft 497 kts 148°
2026-05-01 13:59 28.43570 32.77771 34905 ft 498 kts 148°
2026-05-01 14:00 28.37956 32.82379 34906 ft 499 kts 148°
2026-05-01 14:00 28.32314 32.86999 34899 ft 501 kts 148°
2026-05-01 14:01 28.29478 32.89318 34307 ft 506 kts 148°
2026-05-01 14:01 28.26609 32.91668 33501 ft 509 kts 147°
2026-05-01 14:01 28.23751 32.94011 32883 ft 505 kts 147°
2026-05-01 14:01 28.20916 32.96333 32322 ft 500 kts 148°
2026-05-01 14:02 28.18101 32.98637 31805 ft 495 kts 148°
2026-05-01 14:02 28.15323 33.00907 31304 ft 490 kts 148°
2026-05-01 14:02 28.12567 33.03153 30819 ft 485 kts 148°
2026-05-01 14:02 28.09879 33.05346 30346 ft 481 kts 148°
2026-05-01 14:03 28.07146 33.07576 29856 ft 476 kts 148°
2026-05-01 14:03 28.04507 33.09728 29317 ft 471 kts 148°
2026-05-01 14:03 28.01861 33.11882 28783 ft 466 kts 148°
2026-05-01 14:03 27.99237 33.14017 28268 ft 462 kts 148°
2026-05-01 14:04 27.96646 33.16125 27746 ft 457 kts 148°
2026-05-01 14:04 27.94074 33.18215 27247 ft 452 kts 148°
2026-05-01 14:04 27.91532 33.20278 26742 ft 447 kts 148°
2026-05-01 14:04 27.89863 33.21631 26407 ft 445 kts 148°
2026-05-01 14:05 27.86520 33.24341 25762 ft 439 kts 147°
2026-05-01 14:05 27.84051 33.26344 25285 ft 435 kts 147°
2026-05-01 14:05 27.81603 33.28328 24817 ft 431 kts 147°
2026-05-01 14:05 27.79179 33.30292 24377 ft 427 kts 147°
2026-05-01 14:06 27.76775 33.32239 23940 ft 423 kts 147°
2026-05-01 14:06 27.74400 33.34158 23502 ft 419 kts 147°
2026-05-01 14:06 27.72042 33.36062 22989 ft 415 kts 147°
2026-05-01 14:06 27.69702 33.37952 22476 ft 412 kts 147°
2026-05-01 14:07 27.67384 33.39824 21994 ft 408 kts 147°
2026-05-01 14:07 27.65081 33.41684 21520 ft 406 kts 147°
2026-05-01 14:07 27.62797 33.43529 21055 ft 403 kts 148°
2026-05-01 14:08 27.58300 33.47152 20172 ft 397 kts 148°
2026-05-01 14:08 27.56060 33.48955 19745 ft 395 kts 148°
2026-05-01 14:08 27.53827 33.50753 19323 ft 392 kts 148°
2026-05-01 14:08 27.51576 33.52443 18906 ft 386 kts 156°
2026-05-01 14:09 27.49152 33.53688 18507 ft 381 kts 161°
2026-05-01 14:09 27.46720 33.54864 18103 ft 379 kts 161°
2026-05-01 14:09 27.44304 33.56036 17648 ft 377 kts 161°
2026-05-01 14:09 27.41903 33.57203 17199 ft 375 kts 161°
2026-05-01 14:10 27.39516 33.58365 16754 ft 373 kts 161°
2026-05-01 14:10 27.37140 33.59521 16320 ft 371 kts 161°
2026-05-01 14:10 27.34753 33.60549 15837 ft 363 kts 169°
2026-05-01 14:10 27.32325 33.61283 15105 ft 360 kts 170°
2026-05-01 14:11 27.29914 33.62000 14391 ft 357 kts 171°
2026-05-01 14:11 27.25145 33.63409 12930 ft 351 kts 171°
2026-05-01 14:11 27.22814 33.64096 12199 ft 348 kts 170°
2026-05-01 14:12 27.20499 33.64782 11637 ft 339 kts 170°
2026-05-01 14:12 27.18268 33.65447 11267 ft 325 kts 169°
2026-05-01 14:12 27.16126 33.66086 10897 ft 313 kts 170°
2026-05-01 14:12 27.14056 33.66703 10517 ft 305 kts 170°
2026-05-01 14:13 27.11988 33.67312 9922 ft 308 kts 169°
2026-05-01 14:13 27.10619 33.67714 9519 ft 306 kts 169°
2026-05-01 14:13 27.07880 33.68522 8686 ft 302 kts 169°
2026-05-01 14:13 27.05855 33.69120 8019 ft 301 kts 169°
2026-05-01 14:14 27.03837 33.69716 7398 ft 299 kts 169°
2026-05-01 14:14 27.01848 33.70304 6978 ft 289 kts 168°
2026-05-01 14:14 26.99977 33.70862 6840 ft 268 kts 168°
2026-05-01 14:14 26.98201 33.71392 6442 ft 262 kts 167°
2026-05-01 14:15 26.96521 33.72147 5958 ft 268 kts 149°
2026-05-01 14:15 26.95106 33.73528 5465 ft 274 kts 128°
2026-05-01 14:15 26.94159 33.75388 5059 ft 273 kts 107°
2026-05-01 14:15 26.93802 33.77417 4944 ft 260 kts 90°
2026-05-01 14:16 26.93980 33.79380 4814 ft 248 kts 72°
2026-05-01 14:16 26.94632 33.81131 4538 ft 243 kts 55°
2026-05-01 14:16 26.95695 33.82566 4219 ft 239 kts 38°
2026-05-01 14:16 26.97060 33.83593 3912 ft 234 kts 21°
2026-05-01 14:17 26.98594 33.84152 3600 ft 231 kts
2026-05-01 14:17 27.00182 33.84225 3294 ft 228 kts 352°
2026-05-01 14:17 27.01722 33.83855 2991 ft 225 kts 344°
2026-05-01 14:17 27.03206 33.83413 2687 ft 216 kts 344°
2026-05-01 14:18 27.04628 33.82994 2402 ft 206 kts 345°
2026-05-01 14:18 27.05985 33.82596 2131 ft 198 kts 345°
2026-05-01 14:18 27.07308 33.82208 1878 ft 196 kts 344°
2026-05-01 14:18 27.08185 33.81951 1699 ft 197 kts 344°
2026-05-01 14:19 27.09869 33.81453 1378 ft 176 kts 347°
2026-05-01 14:19 27.11008 33.81112 1153 ft 162 kts 347°
2026-05-01 14:19 27.12023 33.80811 946 ft 146 kts 348°
2026-05-01 14:19 27.12969 33.80540 733 ft 137 kts 345°
2026-05-01 14:20 27.13881 33.80287 513 ft 132 kts 348°
2026-05-01 14:20 27.15707 33.79746 214 ft 139 kts 348°
2026-05-01 14:20 27.16623 33.79476 115 ft 125 kts 343°
2026-05-01 14:21 27.17349 33.79258 100 ft 93 kts 345°
2026-05-01 14:21 27.17894 33.79097 100 ft 70 kts 345°
2026-05-01 14:21 27.18311 33.78972 99 ft 54 kts 345°
2026-05-01 14:22 27.18839 33.78816 91 ft 15 kts 345°
2026-05-01 14:22 27.18902 33.78886 92 ft 16 kts 75°
2026-05-01 14:22 27.18935 33.79022 87 ft 21 kts 74°
2026-05-01 14:22 27.18979 33.79197 74 ft 26 kts 75°
2026-05-01 14:23 27.19032 33.79417 59 ft 32 kts 75°
2026-05-01 14:23 27.19087 33.79660 54 ft 31 kts 75°
2026-05-01 14:23 27.19143 33.79893 61 ft 29 kts 75°
2026-05-01 14:23 27.19191 33.80089 54 ft 23 kts 75°
2026-05-01 14:24 27.19196 33.80227 54 ft 16 kts 149°
2026-05-01 14:24 27.19102 33.80258 57 ft 11 kts 165°
2026-05-01 14:24 27.19093 33.80313 55 ft 8 kts 74°
2026-05-01 14:24 27.19101 33.80348 54 ft 0 kts 75°